This is the latest recevied weather packets stored in our database for station/object DL1BWU. If no packets are shown the sender has not sent any weather packets the latest 10 day(s).
| Time | Temp. | Humidity | Pressure | Rain* | Wind** | Luminosity | Snow |
|---|---|---|---|---|---|---|---|
| 1777839913 | 18.89° C | 52% | 1010 hPa | 0 mm | - | - | - |
| 1777839313 | 18.89° C | 51% | 1010.1 hPa | 0 mm | - | - | - |
| 1777838713 | 18.89° C | 50% | 1010.2 hPa | 0 mm | - | - | - |
| 1777838113 | 19.44° C | 49% | 1010 hPa | 0 mm | - | - | - |
| 1777837513 | 20° C | 48% | 1009.7 hPa | 0 mm | - | - | - |
| 1777836913 | 20° C | 48% | 1009.8 hPa | 0 mm | - | - | - |
| 1777836313 | 20.56° C | 47% | 1009.7 hPa | 0 mm | - | - | - |
| 1777835713 | 20.56° C | 46% | 1009.8 hPa | 0 mm | - | - | - |
| 1777835113 | 21.11° C | 45% | 1009.7 hPa | 0 mm | - | - | - |
| 1777834513 | 21.11° C | 45% | 1009.7 hPa | 0 mm | - | - | - |
| 1777833913 | 21.67° C | 44% | 1009.7 hPa | 0 mm | - | - | - |
| 1777833313 | 21.67° C | 43% | 1009.4 hPa | 0 mm | - | - | - |
| 1777832713 | 22.22° C | 43% | 1009.5 hPa | 0 mm | - | - | - |
| 1777832113 | 22.78° C | 42% | 1009.4 hPa | 0 mm | - | - | - |
| 1777831513 | 23.33° C | 41% | 1009.5 hPa | 0 mm | - | - | - |
| 1777830913 | 23.33° C | 40% | 1009.4 hPa | 0 mm | - | - | - |
| 1777830313 | 23.89° C | 40% | 1009.5 hPa | 0 mm | - | - | - |
| 1777829713 | 25° C | 38% | 1009.4 hPa | 0 mm | - | - | - |
| 1777829113 | 25° C | 38% | 1009.4 hPa | 0 mm | - | - | - |
| 1777828513 | 25.56° C | 35% | 1009.4 hPa | 0 mm | - | - | - |
| 1777827913 | 25.56° C | 33% | 1009.5 hPa | 0 mm | - | - | - |
| 1777827313 | 26.11° C | 32% | 1009.4 hPa | 0 mm | - | - | - |
| 1777826714 | 26.11° C | 32% | 1009.4 hPa | 0 mm | - | - | - |
| 1777826113 | 26.67° C | 32% | 1009.5 hPa | 0 mm | - | - | - |
| 1777825513 | 26.11° C | 34% | 1009.3 hPa | 0 mm | - | - | - |
* Rain latest hour (hover to see other rain measurements)
** Current wind speed in m/s (hover to see current wind gust speed)